User: anonymous   Login
Location: Champaign/Urbana Astronomical Society Observatory
(40.0333°N, 88.2833°W)
Time: 20:00:37
(UTC-05:00)
Language:

DOVE 4 - Orbit

View from above orbital plane
View from above orbital plane
View from above satellite
View from above satellite

Ground track
Ground track

The orbit data is extracted from the following two-line orbital elements,

1 39430U 13066Q   19141.85194420  .00000237  00000-0  52024-4 0  9993
2 39430  97.7445 100.2415 0151223 342.6448  16.9620 14.59241717292542
Epoch (UTC): 21 May 2019 20:26:47
Eccentricity: 0.0151223
inclination: 97.7445°
perigee height: 588 km
apogee height: 802 km
right ascension of ascending node: 100.2415°
argument of perigee: 342.6448°
revolutions per day: 14.59241717
mean anomaly at epoch: 16.9620°
orbit number at epoch: 29254

The dashed part of the orbit path shows where the satellite is in the earth's shadow,  

DLR